Lid_Strength_Index
1 1 1 1 1 1 1 1 -0 -0 -0 -0 -0 -0 -0 0 0 0 0 1 1 1
1 1 1 1 0 1 1 0 -0 -0 0 -0 -0 -0 -0 0 0 0 0 0 0 1
1 0 0 0 1 0 0 -0 0 0 0 0 0 -0 -0 0 0 0 1 0 0 1
1 1 0 1 1 0 0 0 0 0 0 0 0 0 0 0 0 1 1 0 1 1
0 0 1 1 1 0 0 0 0 0 0 0 0 0 1 1 1 1 1 1 1 1
1 1 1 1 0 0 0 0 0 0 1 1 0 1 0 1 1 1 1 1 1 1
1 1 1 0 1 0 0 1 0 0 0 1 0 0 0 0 1 1 1 0 0 1
1 1 1 1 1 0 0 1 1 1 1 0 1 1 1 1 1 1 1 0 0 0
1 1 1 1 1 1 1 0 1 1 1 1 1 3 4 1 1 1 1 1 1 0
1 1 1 1 1 1 1 1 1 1 1 1 1 7 7 6 1 1 1 1 1 1
1 1 1 1 2 2 1 1 2 3 2 3 2 7 8 7 1 1 1 1 1 1
1 1 1 2 2 2 2 2 2 2 2 2 2 7 8 6 3 2 1 1 0 1
1 1 1 2 1 1 1 2 1 1 1 2 1 8 8 6 1 2 2 1 1 5
1 1 0 1 1 1 1 1 1 1 1 1 2 4 9 8 1 1 2 2 1 1